COSMOS 1732

导读 | 豆包AI

COSMOS 1732是苏联(CIS)于1986年2月11日发射的宇宙系列卫星,该系列是苏联/俄罗斯规模最大的多任务卫星家族,超九成用于军事用途。作为冷战时期航天竞争的产物,它延续了系列保密传统,具体任务细节未公开。这类卫星通常承担军事侦察、技术试验等战略任务,是苏联保持太空军事存在的重要平台,体现了当时苏联航天技术应用水平。

基本信息
目录编号:
16593
目录名称:
COSMOS 1732
国际标识:
1986-015A
轨道中心:
EARTH
卫星名称:
COSMOS 1732
卫星全名:
--
卫星状态:
在轨 (已飞行14689 天)
发射日期:
1986-02-11 UTC
国别 :
俄罗斯(独联体) (CIS)
星等 :
--
轨道信息
数据来源 国际轨道数据 AOE轨道数据
星历时间 2026-05-01T03:37:13+0800
9小时前
查看轨道信息
2026-04-28T15:00:00+0800
2天前
查看轨道信息
半长轴 7880.396km 7880.404km
偏心率 0.0026292 0.002609
轨道倾角 73.614° 73.615°
近地点辐角 134.833° 138.390°
升交点赤经 8.846° 12.230°
平近点角 225.486° 100.829°
近地点 1481.539km 1481.707km
远地点 1522.979km 1522.827km
周期 116.033分钟 116.033分钟
每日圈数 12.410255 12.410236
详细信息
使用方式:
暂无
2D轨道图
3D轨道图
轨道高度分析图
轨道倾角分析图
轨道综合分析图
查看轨道综合分析图